Port Angeles, WA
on Sunday, November 25, 2012

Sunday
Previous Day Next Day
Daily Summary
 ActualAverageRecord
Temperature
Mean Temperature °F °F  
Max Temperature 46°F 47°F 57°F (1954)
Min Temperature 37°F 36°F 18°F (1985)
Degree Days
Heating Degree Days 24    
Moisture
Dew Point 35°F   
Average Humidity 77    
Maximum Humidity 93    
Minimum Humidity 68    
Precipitation
Precipitation 0.00 in in in ()
Wind
Wind Speed 8 mph   
Max Wind Speed 15 mph   
Max Gust Speed 16 mph   
Visibility 10 miles   
Events     
Averages and records for this station are not official NWS values.
Key: T is trace of precipitation, MM is missing value
Source: NWS Daily Summary
Seasonal Weather Averages
Time(PST)TemperatureDew PointHumidity Pressure Visibility Wind DirectionWind SpeedGust SpeedPrecipitationEvents Conditions
12:53 AM 39.9°F 33.1°F 77% 30.28 in 10.0 miles WSW 11.5 mph - N/A   Clear
1:53 AM 39.9°F 32.0°F 73% 30.28 in 10.0 miles WSW 15.0 mph - N/A   Clear
2:53 AM 41.0°F 32.0°F 70% 30.29 in 10.0 miles WSW 11.5 mph - N/A   Mostly Cloudy
3:51 AM 39.2°F 32.0°F 75% 30.29 in 10.0 miles WSW 10.4 mph - N/A   Overcast
3:53 AM 39.0°F 32.0°F 76% 30.30 in 10.0 miles WSW 10.4 mph - N/A   Overcast
4:00 AM 39.9°F 32.0°F 73% 30.29 in 10.0 miles WSW 8.1 mph - N/A   Overcast
4:11 AM 39.9°F 32.0°F 73% 30.29 in 10.0 miles West 9.2 mph - N/A   Overcast
4:25 AM 39.9°F 32.0°F 73% 30.30 in 10.0 miles West 9.2 mph - N/A   Overcast
4:53 AM 39.9°F 32.0°F 73% 30.30 in 10.0 miles WSW 9.2 mph - N/A   Overcast
5:16 AM 41.0°F 32.0°F 70% 30.30 in 10.0 miles West 8.1 mph - N/A   Overcast
5:53 AM 39.9°F 32.0°F 73% 30.31 in 10.0 miles WSW 5.8 mph - 0.00 in   Overcast
6:53 AM 39.0°F 34.0°F 82% 30.32 in 10.0 miles SSW 4.6 mph - N/A   Overcast
7:45 AM 37.0°F 34.0°F 89% 30.32 in 10.0 miles Calm Calm - N/A   Mostly Cloudy
7:53 AM 37.0°F 35.1°F 93% 30.33 in 10.0 miles Calm Calm - N/A   Overcast
8:53 AM 39.9°F 35.1°F 83% 30.35 in 10.0 miles SW 5.8 mph - N/A   Overcast
9:53 AM 41.0°F 36.0°F 82% 30.35 in 10.0 miles SW 3.5 mph - N/A   Overcast
10:08 AM 42.1°F 36.0°F 79% 30.35 in 10.0 miles SW 4.6 mph - N/A   Overcast
10:53 AM 46.0°F 36.0°F 68% 30.35 in 10.0 miles SE 5.8 mph - N/A   Mostly Cloudy
11:53 AM 45.0°F 37.0°F 74% 30.35 in 10.0 miles East 3.5 mph - N/A   Scattered Clouds
12:30 PM 45.0°F 37.0°F 74% 30.34 in 10.0 miles East 5.8 mph - N/A   Mostly Cloudy
12:53 PM 45.0°F 37.0°F 74% 30.34 in 10.0 miles East 8.1 mph - N/A   Mostly Cloudy
1:53 PM 45.0°F 37.9°F 76% 30.35 in 10.0 miles ENE 5.8 mph - N/A   Overcast
2:53 PM 45.0°F 37.9°F 76% 30.33 in 10.0 miles East 6.9 mph - N/A   Overcast
3:53 PM 44.1°F 36.0°F 73% 30.33 in 10.0 miles East 9.2 mph - N/A   Overcast
4:53 PM 44.1°F 36.0°F 73% 30.32 in 10.0 miles ENE 4.6 mph - N/A   Overcast
5:53 PM 44.1°F 36.0°F 73% 30.31 in 10.0 miles ENE 5.8 mph - N/A   Overcast
6:41 PM 44.1°F 37.9°F 79% 30.30 in 10.0 miles ENE 6.9 mph - N/A   Overcast
6:49 PM 44.6°F 37.4°F 76% 30.30 in 10.0 miles East 4.6 mph - N/A   Overcast
6:53 PM 44.1°F 37.0°F 76% 30.30 in 10.0 miles East 4.6 mph - N/A   Overcast
7:53 PM 43.0°F 37.0°F 80% 30.29 in 10.0 miles ESE 5.8 mph - N/A   Overcast
8:53 PM 43.0°F 37.0°F 80% 30.29 in 10.0 miles SE 5.8 mph - N/A   Overcast
9:04 PM 43.0°F 37.0°F 80% 30.28 in 10.0 miles ESE 3.5 mph - N/A   Overcast
9:53 PM 43.0°F 37.0°F 80% 30.27 in 10.0 miles SE 5.8 mph - N/A   Overcast
10:53 PM 43.0°F 37.0°F 80% 30.27 in 10.0 miles East 6.9 mph - N/A   Overcast
11:27 PM 43.0°F 37.9°F 82% 30.26 in 10.0 miles East 8.1 mph 16.1 mph N/A   Overcast
11:46 PM 43.0°F 37.9°F 82% 30.27 in 10.0 miles Variable 4.6 mph - N/A   Overcast
11:53 PM 43.0°F 37.0°F 80% 30.28 in 10.0 miles Variable 4.6 mph - N/A   Overcast
Moon Phase
Nov. 25 Nov. 28 Dec. 06 Dec. 13 Dec. 20
Sunrise:07:36 AM (PST) Moon Rise:02:53 PM (PST)11/25
Sunset:04:25 PM (PST) Moon Set:04:46 AM (PST)11/25

Copyright © 2014 The Weather Underground, Inc.